Home   Weather   Georgsmarienhütte   Past weeks

Flag for Germany Past Weather in Georgsmarienhütte, Lower Saxony, Germany — Yesterday and Last 2 Weeks

Now
46 °F

Broken clouds.


Feels Like: 44 °F
Forecast: 36 / 46 °F
Wind: 6 mph from Southwest

Location: Muenster / Osnabrueck

Current Time: Feb 28, 2017 at 6:05:13 pm

Latest Report: Feb 28, 2017 at 5:20 pm


Visibility: N/A

Pressure: 29.21 "Hg

Humidity: 57%

Dew Point: 32 °F

Location of GeorgsmarienhütteLocation

Past Weather in Georgsmarienhütte — Graph

°F

Georgsmarienhütte Temperature Yesterday

Maximum temperature yesterday: 54 °F (at 10:20 am)
Minimum temperature yesterday: 45 °F (at 8:20 pm)
Average temperature yesterday: 51 °F

High & Low Weather Summary for the Past Weeks

 TemperatureHumidityPressure
High55 °F (Feb 15, 2:50 pm)100% (Feb 16, 5:20 am)30.51 "Hg (Feb 16, 5:20 am)
Low27 °F (Feb 14, 6:20 am)29% (Feb 14, 12:20 pm)29.12 "Hg (Feb 23, 4:50 pm)
Average44 °F81%29.97 "Hg
* Reported Feb 13 4:20 pm — Feb 28 4:20 pm, Georgsmarienhütte, Weather by CustomWeather, © 2017

Note: Actual official high and low records may vary slightly from our data, if they occured in-between our weather recording intervals... More about our weather records

Advertising

Georgsmarienhütte Weather History for the Previous 24 Hours

Scroll right to see more
 ConditionsComfort  
Time TempWeatherWind HumidityBarometerVisibility
4:20 pm
Tue, Feb 28
46 °FPartly sunny.9 mph57%29.18 "HgN/A
3:50 pm46 °FBroken clouds.12 mph57%29.18 "HgN/A
3:20 pm46 °FBroken clouds.13 mph57%29.18 "HgN/A
2:50 pm48 °FBroken clouds.13 mph54%29.18 "HgN/A
2:20 pm46 °FPartly sunny.15 mph57%29.21 "HgN/A
1:50 pm46 °FPartly sunny.13 mph62%29.21 "HgN/A
1:20 pm45 °FPartly sunny.17 mph66%29.21 "HgN/A
12:50 pm45 °FSprinkles. Partly sunny.20 mph61%29.24 "HgN/A
12:20 pm45 °FBroken clouds.15 mph61%29.24 "HgN/A
11:50 am45 °FBroken clouds.16 mph61%29.24 "HgN/A
11:20 am45 °FPartly sunny.18 mph61%29.24 "HgN/A
10:50 am45 °FPartly sunny.18 mph61%29.24 "HgN/A
10:20 am43 °FPartly sunny.18 mph66%29.24 "HgN/A
9:50 am43 °FPartly sunny.18 mph66%29.24 "HgN/A
9:20 am43 °FPartly sunny.20 mph66%29.24 "HgN/A
8:50 am43 °FPartly sunny.18 mph66%29.21 "HgN/A
8:20 am43 °FBroken clouds.17 mph66%29.21 "HgN/A
7:50 am43 °FPartly sunny.17 mph66%29.21 "HgN/A
7:20 am43 °FBroken clouds.15 mph71%29.21 "HgN/A
6:50 am41 °FPassing clouds.14 mph76%29.21 "HgN/A
6:20 am41 °FPassing clouds.12 mph76%29.21 "HgN/A
5:50 am41 °FPassing clouds.15 mph76%29.21 "HgN/A
5:20 am41 °FPassing clouds.15 mph76%29.21 "HgN/A
4:50 am41 °FPassing clouds.16 mph76%29.21 "HgN/A
4:20 am41 °FPassing clouds.13 mph81%29.18 "HgN/A
3:50 am41 °FPassing clouds.18 mph81%29.21 "HgN/A
3:20 am43 °FThundershowers. Passing clouds.14 mph76%29.18 "HgN/A
2:50 am45 °FPassing clouds.14 mph66%29.18 "HgN/A
2:20 am45 °FPassing clouds.10 mph71%29.21 "HgN/A
1:50 am45 °FPassing clouds.12 mph71%29.18 "HgN/A
1:20 am45 °FPassing clouds.20 mph71%29.21 "HgN/A
12:50 am46 °FSprinkles. Passing clouds.21 mph71%29.21 "HgN/A
12:20 am46 °FPassing clouds.13 mph71%29.18 "HgN/A
11:50 pm
Mon, Feb 27
46 °FPassing clouds.14 mph76%29.21 "HgN/A
11:20 pm46 °FPartly cloudy.15 mph76%29.21 "HgN/A
10:50 pm46 °FPartly cloudy.15 mph76%29.21 "HgN/A
10:20 pm46 °FPartly cloudy.13 mph82%29.21 "HgN/A
9:50 pm46 °FPassing clouds.13 mph82%29.21 "HgN/A
9:20 pm45 °FClear.13 mph93%29.24 "Hg10 mi
8:50 pm45 °FPassing clouds.14 mph93%29.24 "HgN/A
8:20 pm45 °FLight rain. Passing clouds.12 mph93%29.24 "HgN/A
7:50 pm46 °FLight rain. Passing clouds.16 mph87%29.27 "HgN/A
7:20 pm46 °FRain. Passing clouds.24 mph87%29.30 "Hg2 mi
6:20 pm52 °FLight rain. Passing clouds.16 mph62%29.27 "HgN/A
Weather by CustomWeather, © 2017

See weather overviewHow to use our weather pages